Погода в Ивделе

Погода в Ивделе : погода сейчас, прогноз погоды и архив. Всё, что Вы хотите узнать о погоде в Ивделе!

Хотите узнать прогноз погоды в Ивделе? Тогда Вам сюда: Погода в Ивделе

Поиск расширенной информации на нашем сайте:

Другие новости

Новости СМИ2

Главная страница сайта

Новости сайта

03.07.2017

Напоминаем, что на нашем специализированном сайте Метеоцентр.Азия вы можете получить высокодетализированные автоматические прогнозы погоды по пунктам России, СНГ и мира в авиационном формате (включающие направление и скорость ветра, видимость, явления погоды, количество и форму облачности, нижнюю и верхнюю границу облачности).


Погода в Ивделе - сегодня

Время (UTC), дата Ветер
(°,м/с) 
Видим.   Явления Облачность Т
(°С)
Тd
(°С)
f(%) Тe
(°С)
Pmin
(гПа)
dP
(гПа)
Po
(мм)
O2
(г/м3)
Тmin Tmax R s Состояние
почвы
06 12.08.18 240 (ЮЗ) 20000 м    9/4 1000 м средняя 
[Sc|Ac trans]
+15.9 +6.5 54 +16  1007.6  -0.8  747  283           
09 12.08.18 220 (ЮЗ) 20000 м  в посл. час ливневой дождь  10/10 1000 м 
[Sc]
+14.4 +8 65 +16  1007.1  -0.5  747  285           
12 12.08.18 140 (ЮВ) 45000 м  {ливн. осадки}  9/8 1000 м средняя 
[Sc|Ac trans]
+17.1 +10.1 63 +20  1006.1  -0.8  746  281           
18 12.08.18 190 (Ю) 10 км    4/3 1000 м средняя 
[Sc|Ac trans]
+14.1 +12.6 91 +20  1006.4  0.6  746  283           
21 12.08.18 090 (В) 10 км    8/3 1000 м средняя 
[Sc|Ac trans]
+12.3 +11.1 92 +17  1006.2  -0.3  746  286           
00 13.08.18 тихо ()   13000 м    8/8 1000 м 
[Sc]
+11.5 +10.4 93 +13  1006.4  0.2  746  287           
03 13.08.18 тихо ()   0700 м  туман  ?/?  
+13 +11.9 93 +17  1006.4  746  285  +10.9        сухая 
06 13.08.18 110 (В) 20000 м  {туман}  9/1 600 м верхняя 
[Cu hum|Ci fib]
+23.3 +16.5 66 +35  1005  -1  746  273           
09 13.08.18 130 (ЮВ) 45000 м    5/5 600 м кучево-дожд. 
[Cb cap]
+25.9 +15.8 54 +36  1003.2  -1.7  744  271           
12 13.08.18 160 (Ю) 40000 м    6/6 600 м кучево-дожд. 
[Cb cap]
+25.9 +16 54 +37  1002  -1.1  744  270           
18 13.08.18 220 (ЮЗ) 10 км    8/5 1000 м верхняя 
[Sc|Ci fib]
+17.1 +11.8 71 +23  1002  0.2  743  280           
21 13.08.18 тихо ()   10 км    4/3 1000 м верхняя 
[Sc|Ci fib]
+12.1 +10.4 89 +14  1002.1  -0.1  743  285           
00 14.08.18 080 (В) 20000 м    8/8 1000 м кучево-дожд. 
[Cb cap]
+14.9 +12 83 +20  1002.5  0.5  744  282           
03 14.08.18 240 (ЮЗ) 20000 м    8/3 1000 м средняя, верхняя 
[Sc|Ac trans|Ci fib]
+20.2 +10.2 53 +22  1003.8  1.5  745  278  +11.8        сухая 
06 14.08.18 250 (З) 20000 м    9/6 600 м средняя, верхняя 
[Cu Sc|Ac trans|Ci fib]
+20.8 +9 47 +21  1004.8  745  278           
09 14.08.18 220 (ЮЗ) 20000 м    9/5 600 м средняя, верхняя 
[Cu Sc|Ac trans|Ci fib]
+22.4 +7.7 39 +22  1005.3  0.5  746  276           
12 14.08.18 260 (З) 20000 м    9/4 600 м кучево-дожд., верхняя 
[Cb cap|Ci fib]
+22.5 +5.8 34 +23  1005.2  746  277           
18 14.08.18 тихо ()   10 км    9/8 600 м кучево-дожд., верхняя 
[Cb cap|Ci fib]
+11.7 +9.7 88 +13  1007.1  747  287           
21 14.08.18 300 (СЗ) 10 км    6/6 600 м кучево-дожд. 
[Cb cap]
+9.5 +7.7 89 +11  1007.6  0.5  747  290           
00 15.08.18 тихо ()   20000 м    10/6 600 м кучево-дожд. 
[Cb cap]
+10.7 +9 89 +11  1008.4  0.8  748  288           
03 15.08.18 340 (С) 20000 м    10/8 600 м кучево-дожд., средняя 
[Cb cap|Ac trans]
+15.3 +10.3 72 +19  1009.3  749  284  +9.3        сухая 
06 15.08.18 360 (С) 20000 м  {ливн. осадки}  9/3 600 м средняя, верхняя 
[Cu hum|Ac trans|Ci fib]
+18.6 +8.8 53 +20  1009.4  0.3  749  281           
09 15.08.18 310 (СЗ) 20000 м  в посл. час ливневой дождь  8/8 600 м кучево-дожд. 
[Cb cap]
+18.8 +11.5 63 +23  1009.6  0.2  749  280           
12 15.08.18 010 (С) 20000 м  {ливн. осадки}  8/8 600 м кучево-дожд. 
[Cb cap]
+18.9 +11.2 61 +23  1010.3  0.7  749  280           
18 15.08.18 300 (СЗ) 10 км  {ливн. осадки}  8/8 1000 м 
[Sc]
+12.3 +10.6 89 +16  1011.9  0.3  750  287           
Время (UTC), дата Ветер
(°,м/с) 
Видим.   Явления Облачность Т
(°С)
Тd
(°С)
f(%) Тe
(°С)
Pmin
(гПа)
dP
(гПа)
Po
(мм)
O2
(г/м3)
Тmin Tmax R s Состояние
почвы

Для получения пояснительной информации подведите курсор к названию столбца.

ПОГОДА в Ивделе - архив

Всё, что Вы хотите узнать о погоде в Ивделе - удобно и подробно!

Выберите нужную дату (начиная с 1 января 2015* года) и нажмите кнопку "Найти".
Будут отображены архивные сводки погоды по пункту Ивдель, начиная с указанной даты.


Отображать данные в формате CSV (для использования в таблицах Excel)


Внимание! Наш архив погоды предназначен исключительно для личного некоммерческого использования в познавательных целях. Если Вам необходимы официальные справки о состоянии погоды (для производственных, юридических, коммерческих и т.п. целей), обращайтесь в органы Росгидромета.

*Примечание: данная дата относится к архиву по метеостанциям СССР (Россия, СНГ, Балтия).
Архив по метеостанциям Зарубежной Европы и Азии (кроме Китая) хранится 10 дней, по другим регионам земного шара (Китай, Африка, Америка, Австралия, Океания) - 1 день.

Ивдель - район местоположения метеостанции


Название, широта, долгота, высота метеостанции:
Ивдель 60.7°ш. 60.4°д. 95 м над ур. моря [Российская Федерация]

Дополнительная информация

В oтличие oт бoльшинства пoгoдных сайтoв мы публикуем пoдрoбную метеoинфoрмацию в детальнoм прoфессиoнальнoм фoрмате.

Характеристики температуры и влажнoсти вoздуха измеряются на высoте 2 м в тени вдали oт зданий и деревьев.
Скoрoсть ветра измеряется на высoте 10 м (на урoвне рoста челoвека скoрoсть ветра ниже в 1.5-2 раза). Если метеoстанция нахoдится в гoрoде или в лесу, тo скoрoсть ветра занижена на 2-4 м/с пo сравнению с oткрытым местoм. Скoрoсть ветра над акватoриями крупных рек и oзёр, а также на вершинах хoлмoв на 2-5 м/с выше, чем в oбычных услoвиях.
Атмoсфернoе давление в разных тoчках местнoсти мoжет значительнo oтличаться oт давления на метеoстанции, в зависимoсти oт услoвий рельефа (при пoдъёме на 10 м давление пoнижается примернo на 1 мм рт.ст.).